^^
Saratoga-Weather Station Historical Data
Daily Summary for May 3, 2020 Units:  Metric    English   Both
Daily Weekly Monthly Yearly Custom
  High: Low: Average:
Temperature: 12.8 °C 9.1 °C 10.3 °C
Dew Point: 11 °C 8.2 °C 9 °C
Humidity: 96% 84% 92%
Wind Speed: 6.4km/h 0km/h 0km/h
Wind Gust: 35.4km/h - -
Wind- - West
Pressure: 1018.0 hPa 1002.4 hPa -
Precipitation: 12.7 mm    
Historical Graphs
 
 
Tabular Data for May 3, 2020
Time Temperature Dew Point Pressure Wind Wind Speed Wind Gust Humidity Rainfall Rate (Hourly) solar
00:02 9.9 °C 8.8 °C 1013.9 hPa Calm     93% 0.2 mm 0 W/m2
00:07 9.9 °C 8.8 °C 1013.9 hPa Calm     93% 0.2 mm 0 W/m2
00:12 9.8 °C 8.7 °C 1013.9 hPa Calm     93% 0.2 mm 0 W/m2
00:17 9.8 °C 8.9 °C 1013.9 hPa Calm     94% 0.2 mm 0 W/m2
00:22 9.8 °C 8.9 °C 1013.9 hPa Calm     94% 0.2 mm 0 W/m2
00:27 9.8 °C 8.9 °C 1013.9 hPa Calm     94% 0.2 mm 0 W/m2
00:33 9.8 °C 8.9 °C 1014.2 hPa Calm     94% 0.2 mm 0 W/m2
00:38 9.8 °C 8.9 °C 1014.2 hPa Calm     94% 0.2 mm 0 W/m2
00:43 9.8 °C 8.9 °C 1014.2 hPa Calm     94% 0.2 mm 0 W/m2
00:48 9.8 °C 8.9 °C 1014.2 hPa Calm     94% 0.5 mm 0 W/m2
00:53 9.7 °C 8.8 °C 1014.2 hPa Calm   1.6 km/h 94% 0.5 mm 0 W/m2
00:58 9.7 °C 8.8 °C 1014.2 hPa Calm     94% 0.5 mm 0 W/m2
01:03 9.7 °C 8.8 °C 1014.2 hPa Calm   1.6 km/h 94% 0.5 mm 0 W/m2
01:08 9.7 °C 8.8 °C 1014.2 hPa Calm     94% 0.5 mm 0 W/m2
01:13 9.7 °C 8.8 °C 1014.6 hPa Calm     94% 0.5 mm 0 W/m2
01:18 9.7 °C 8.9 °C 1014.6 hPa Calm     95% 0.5 mm 0 W/m2
01:23 9.7 °C 8.9 °C 1014.6 hPa Calm     95% 0.5 mm 0 W/m2
01:28 9.7 °C 8.9 °C 1014.6 hPa Calm   3.2 km/h 95% 0.5 mm 0 W/m2
01:33 9.7 °C 8.8 °C 1014.6 hPa Calm     94% 0.5 mm 0 W/m2
01:38 9.7 °C 8.8 °C 1014.6 hPa Calm     94% 0.5 mm 0 W/m2
01:43 9.7 °C 8.8 °C 1014.6 hPa Calm     94% 0.5 mm 0 W/m2
01:48 9.7 °C 8.8 °C 1014.6 hPa Calm     94% 0.5 mm 0 W/m2
01:53 9.7 °C 8.8 °C 1014.6 hPa Calm     94% 0.5 mm 0 W/m2
01:58 9.7 °C 8.8 °C 1014.6 hPa Calm     94% 0.5 mm 0 W/m2
02:03 9.7 °C 8.8 °C 1014.9 hPa Calm     94% 0.5 mm 0 W/m2
02:09 9.7 °C 8.8 °C 1014.6 hPa Calm     94% 0.5 mm 0 W/m2
02:14 9.7 °C 8.8 °C 1014.6 hPa Calm     94% 0.5 mm 0 W/m2
02:19 9.7 °C 8.8 °C 1014.6 hPa Calm     94% 0.5 mm 0 W/m2
02:24 9.7 °C 8.8 °C 1014.6 hPa Calm     94% 0.5 mm 0 W/m2
02:29 9.7 °C 8.8 °C 1014.9 hPa Calm     94% 0.5 mm 0 W/m2
02:34 9.6 °C 8.7 °C 1014.9 hPa Calm     94% 0.2 mm 0 W/m2
02:39 9.6 °C 8.7 °C 1014.9 hPa Calm     94% 0.2 mm 0 W/m2
02:44 9.6 °C 8.7 °C 1014.9 hPa Calm     94% 0.2 mm 0 W/m2
02:49 9.6 °C 8.7 °C 1014.9 hPa Calm     94% 0.2 mm 0 W/m2
02:54 9.6 °C 8.7 °C 1014.9 hPa Calm     94% 0.2 mm 0 W/m2
02:59 9.5 °C 8.6 °C 1014.9 hPa Calm     94% 0.0 mm 0 W/m2
03:04 9.5 °C 8.6 °C 1014.9 hPa Calm     94% 0.0 mm 0 W/m2
03:09 9.4 °C 8.5 °C 1014.9 hPa Calm     94% 0.2 mm 0 W/m2
03:14 9.4 °C 8.5 °C 1014.9 hPa Calm     94% 0.2 mm 0 W/m2
03:19 9.4 °C 8.5 °C 1014.9 hPa Calm     94% 0.2 mm 0 W/m2
03:24 9.4 °C 8.5 °C 1014.9 hPa Calm   1.6 km/h 94% 0.2 mm 0 W/m2
03:29 9.4 °C 8.5 °C 1014.9 hPa Calm     94% 0.5 mm 0 W/m2
03:34 9.3 °C 8.4 °C 1014.9 hPa Calm     94% 0.5 mm 0 W/m2
03:39 9.3 °C 8.4 °C 1015.2 hPa Calm     94% 0.5 mm 0 W/m2
03:44 9.3 °C 8.4 °C 1015.2 hPa Calm     94% 0.5 mm 0 W/m2
03:49 9.3 °C 8.4 °C 1015.2 hPa Calm     94% 0.5 mm 0 W/m2
03:54 9.3 °C 8.4 °C 1015.2 hPa Calm   3.2 km/h 94% 0.5 mm 0 W/m2
03:59 9.3 °C 8.4 °C 1015.2 hPa Calm     94% 0.8 mm 0 W/m2
04:04 9.2 °C 8.3 °C 1015.2 hPa Calm     94% 0.8 mm 0 W/m2
04:09 9.2 °C 8.3 °C 1015.2 hPa Calm     94% 0.5 mm 0 W/m2
04:14 9.2 °C 8.3 °C 1015.2 hPa Calm     94% 0.5 mm 0 W/m2
04:19 9.2 °C 8.3 °C 1015.2 hPa Calm     94% 0.8 mm 0 W/m2
04:24 9.2 °C 8.3 °C 1015.2 hPa Calm     94% 0.8 mm 0 W/m2
04:29 9.1 °C 8.2 °C 1015.2 hPa Calm     94% 0.8 mm 0 W/m2
04:34 9.1 °C 8.3 °C 1015.2 hPa Calm     95% 0.8 mm 0 W/m2
04:39 9.1 °C 8.3 °C 1015.2 hPa Calm     95% 1.0 mm 0 W/m2
04:45 9.1 °C 8.3 °C 1014.9 hPa Calm     95% 1.0 mm 0 W/m2
04:50 9.1 °C 8.3 °C 1015.2 hPa Calm     95% 1.0 mm 0 W/m2
04:55 9.1 °C 8.3 °C 1015.2 hPa Calm     95% 1.0 mm 0 W/m2
05:00 9.1 °C 8.3 °C 1015.2 hPa Calm     95% 1.0 mm 0 W/m2
05:05 9.1 °C 8.3 °C 1015.2 hPa Calm     95% 1.0 mm 0 W/m2
05:10 9.1 °C 8.3 °C 1015.2 hPa Calm     95% 1.3 mm 0 W/m2
05:15 9.1 °C 8.3 °C 1015.2 hPa Calm     95% 1.0 mm 0 W/m2
05:20 9.1 °C 8.3 °C 1015.2 hPa Calm     95% 1.3 mm 0 W/m2
05:25 9.1 °C 8.3 °C 1015.2 hPa Calm     95% 1.5 mm 0 W/m2
05:30 9.1 °C 8.3 °C 1015.2 hPa Calm     95% 1.5 mm 0 W/m2
05:35 9.1 °C 8.3 °C 1015.2 hPa Calm     95% 1.5 mm 0 W/m2
05:40 9.1 °C 8.3 °C 1015.2 hPa Calm     95% 1.5 mm 0 W/m2
05:45 9.1 °C 8.5 °C 1015.6 hPa Calm     96% 1.5 mm 0 W/m2
05:50 9.1 °C 8.5 °C 1015.6 hPa Calm     96% 1.5 mm 0 W/m2
05:55 9.1 °C 8.5 °C 1015.6 hPa Calm     96% 1.5 mm 0 W/m2
06:00 9.1 °C 8.5 °C 1015.6 hPa Calm     96% 1.5 mm 0 W/m2
06:05 9.2 °C 8.6 °C 1015.9 hPa Calm     96% 1.8 mm 0 W/m2
06:11 9.2 °C 8.6 °C 1015.9 hPa Calm     96% 1.8 mm 0 W/m2
06:16 9.2 °C 8.6 °C 1015.9 hPa Calm     96% 2.0 mm 0 W/m2
06:21 9.2 °C 8.6 °C 1015.9 hPa Calm     96% 1.8 mm 0 W/m2
06:26 9.2 °C 8.6 °C 1015.9 hPa Calm     96% 1.8 mm 0 W/m2
06:31 9.2 °C 8.6 °C 1015.9 hPa Calm     96% 1.5 mm 0 W/m2
06:36 9.2 °C 8.6 °C 1016.3 hPa Calm     96% 1.5 mm 0 W/m2
06:41 9.2 °C 8.6 °C 1015.9 hPa Calm     96% 1.5 mm 0 W/m2
06:46 9.2 °C 8.4 °C 1016.3 hPa Calm     95% 1.5 mm 0 W/m2
06:51 9.3 °C 8.5 °C 1016.3 hPa Calm     95% 1.5 mm 0 W/m2
06:56 9.3 °C 8.5 °C 1016.3 hPa Calm     95% 1.5 mm 0 W/m2
07:01 9.2 °C 8.4 °C 1016.3 hPa Calm     95% 1.5 mm 0 W/m2
07:06 9.2 °C 8.3 °C 1016.3 hPa Calm     94% 1.3 mm 0 W/m2
07:11 9.2 °C 8.3 °C 1015.9 hPa Calm     94% 1.0 mm 0 W/m2
07:16 9.2 °C 8.4 °C 1015.9 hPa Calm     95% 1.0 mm 0 W/m2
07:21 9.3 °C 8.5 °C 1015.9 hPa Calm     95% 1.0 mm 0 W/m2
07:26 9.3 °C 8.5 °C 1015.9 hPa Calm     95% 1.0 mm 0 W/m2
07:31 9.3 °C 8.5 °C 1015.9 hPa Calm     95% 1.0 mm 0 W/m2
07:36 9.3 °C 8.5 °C 1015.9 hPa Calm     95% 0.8 mm 0 W/m2
07:41 9.4 °C 8.6 °C 1015.9 hPa Calm     95% 0.8 mm 0 W/m2
07:46 9.4 °C 8.5 °C 1015.9 hPa Calm     94% 0.5 mm 0 W/m2
07:51 9.4 °C 8.5 °C 1015.9 hPa Calm     94% 0.5 mm 0 W/m2
07:56 9.4 °C 8.5 °C 1015.6 hPa Calm     94% 0.5 mm 0 W/m2
08:01 9.4 °C 8.5 °C 1015.6 hPa Calm     94% 0.5 mm 0 W/m2
08:06 9.4 °C 8.5 °C 1015.2 hPa Calm   1.6 km/h 94% 0.5 mm 0 W/m2
08:11 9.4 °C 8.5 °C 1015.2 hPa Calm     94% 0.5 mm 0 W/m2
08:16 9.4 °C 8.5 °C 1015.6 hPa Calm     94% 0.2 mm 5 W/m2
08:21 9.5 °C 8.6 °C 1015.9 hPa Calm     94% 0.5 mm 7 W/m2
08:26 9.5 °C 8.6 °C 1015.9 hPa Calm     94% 0.2 mm 11 W/m2
08:31 9.4 °C 8.5 °C 1015.9 hPa Calm     94% 0.2 mm 16 W/m2
08:36 9.4 °C 8.5 °C 1015.9 hPa Calm     94% 0.2 mm 21 W/m2
08:41 9.4 °C 8.5 °C 1015.9 hPa Calm     94% 0.2 mm 25 W/m2
08:46 9.4 °C 8.5 °C 1015.9 hPa Calm   19.3 km/h 94% 0.2 mm 19 W/m2
08:51 9.4 °C 8.5 °C 1016.3 hPa Calm     94% 0.2 mm 19 W/m2
08:56 9.4 °C 8.3 °C 1016.3 hPa Calm     93% 0.2 mm 25 W/m2
09:02 9.4 °C 8.3 °C 1016.3 hPa Calm     93% 0.2 mm 28 W/m2
09:07 9.4 °C 8.3 °C 1016.3 hPa Calm     93% 0.2 mm 32 W/m2
09:12 9.4 °C 8.3 °C 1016.6 hPa Calm   17.7 km/h 93% 0.2 mm 28 W/m2
09:17 9.4 °C 8.3 °C 1016.6 hPa Calm     93% 0.2 mm 44 W/m2
09:22 9.4 °C 8.3 °C 1016.6 hPa Calm     93% 0.0 mm 72 W/m2
09:27 9.5 °C 8.4 °C 1016.9 hPa Calm     93% 0.0 mm 67 W/m2
09:32 9.5 °C 8.3 °C 1016.6 hPa Calm     92% 0.0 mm 60 W/m2
09:37 9.5 °C 8.3 °C 1016.6 hPa Calm   3.2 km/h 92% 0.0 mm 69 W/m2
09:42 9.5 °C 8.3 °C 1016.6 hPa Calm     92% 0.0 mm 62 W/m2
09:47 9.6 °C 8.4 °C 1016.6 hPa Calm     92% 0.0 mm 74 W/m2
09:52 9.6 °C 8.5 °C 1016.6 hPa Calm   1.6 km/h 93% 0.0 mm 79 W/m2
09:57 9.6 °C 8.5 °C 1016.9 hPa Calm     93% 0.0 mm 88 W/m2
10:02 9.7 °C 8.6 °C 1016.9 hPa Calm   1.6 km/h 93% 0.0 mm 104 W/m2
10:07 9.7 °C 8.6 °C 1016.9 hPa Calm     93% 0.0 mm 113 W/m2
10:12 9.8 °C 8.6 °C 1016.9 hPa Calm     92% 0.0 mm 114 W/m2
10:18 9.8 °C 8.6 °C 1016.9 hPa Calm     92% 0.0 mm 93 W/m2
10:23 9.8 °C 8.6 °C 1016.9 hPa Calm     92% 0.0 mm 90 W/m2
10:28 9.9 °C 8.7 °C 1016.9 hPa Calm     92% 0.0 mm 72 W/m2
10:33 9.9 °C 8.7 °C 1017.3 hPa Calm     92% 0.0 mm 76 W/m2
10:38 9.9 °C 8.7 °C 1016.9 hPa Calm     92% 0.0 mm 67 W/m2
10:43 10 °C 8.8 °C 1016.9 hPa Calm     92% 0.0 mm 62 W/m2
10:48 10.1 °C 8.9 °C 1017.3 hPa Calm     92% 0.0 mm 70 W/m2
10:53 10.1 °C 8.9 °C 1017.3 hPa Calm     92% 0.0 mm 102 W/m2
10:58 10.1 °C 8.9 °C 1017.3 hPa Calm   1.6 km/h 92% 0.0 mm 123 W/m2
11:03 10.2 °C 8.8 °C 1017.3 hPa Calm     91% 0.0 mm 97 W/m2
11:08 10.2 °C 8.8 °C 1017.3 hPa Calm   1.6 km/h 91% 0.0 mm 91 W/m2
11:13 10.3 °C 8.9 °C 1017.3 hPa Calm     91% 0.0 mm 148 W/m2
11:18 10.3 °C 8.9 °C 1017.6 hPa Calm   1.6 km/h 91% 0.0 mm 128 W/m2
11:23 10.4 °C 9 °C 1017.3 hPa Calm   1.6 km/h 91% 0.0 mm 123 W/m2
11:28 10.4 °C 8.8 °C 1017.3 hPa Calm     90% 0.0 mm 123 W/m2
11:33 10.5 °C 8.9 °C 1017.3 hPa Calm   3.2 km/h 90% 0.0 mm 134 W/m2
11:38 10.6 °C 9 °C 1017.6 hPa Calm     90% 0.0 mm 120 W/m2
11:43 10.7 °C 9 °C 1017.6 hPa Calm   3.2 km/h 89% 0.0 mm 121 W/m2
11:48 10.7 °C 9 °C 1018.0 hPa Calm   4.8 km/h 89% 0.0 mm 100 W/m2
11:53 10.8 °C 9.1 °C 1018.0 hPa Calm     89% 0.0 mm 135 W/m2
11:58 10.8 °C 9.1 °C 1017.6 hPa Calm     89% 0.0 mm 128 W/m2
12:04 10.8 °C 9.1 °C 1018.0 hPa Calm     89% 0.0 mm 165 W/m2
12:09 10.9 °C 9 °C 1017.6 hPa Calm   4.8 km/h 88% 0.0 mm 160 W/m2
12:14 11 °C 9.1 °C 1017.6 hPa Calm     88% 0.0 mm 137 W/m2
12:19 11 °C 9.1 °C 1017.6 hPa Calm   4.8 km/h 88% 0.0 mm 118 W/m2
12:24 11 °C 9.1 °C 1017.6 hPa Calm   1.6 km/h 88% 0.0 mm 142 W/m2
12:29 11 °C 8.9 °C 1017.6 hPa Calm     87% 0.0 mm 134 W/m2
12:34 11.1 °C 9.2 °C 1018.0 hPa Calm   1.6 km/h 88% 0.0 mm 149 W/m2
12:39 11.1 °C 9 °C 1018.0 hPa Calm   1.6 km/h 87% 0.0 mm 120 W/m2
12:44 11.2 °C 9.1 °C 1018.0 hPa Calm     87% 0.0 mm 178 W/m2
12:49 11.2 °C 9.3 °C 1017.6 hPa Calm     88% 0.0 mm 134 W/m2
12:54 11.2 °C 9.1 °C 1017.6 hPa Calm     87% 0.0 mm 105 W/m2
12:59 11.2 °C 8.9 °C 1018.0 hPa Calm   16.1 km/h 86% 0.0 mm 105 W/m2
13:04 11.2 °C 8.9 °C 1017.6 hPa Calm     86% 0.0 mm 144 W/m2
13:09 11.2 °C 8.9 °C 1018.0 hPa Calm   16.1 km/h 86% 0.0 mm 83 W/m2
13:14 11.2 °C 8.9 °C 1017.6 hPa Calm     86% 0.0 mm 100 W/m2
13:19 11.2 °C 8.9 °C 1017.6 hPa Calm     86% 0.0 mm 109 W/m2
13:24 11.2 °C 8.9 °C 1017.6 hPa Calm   1.6 km/h 86% 0.0 mm 123 W/m2
13:29 11.2 °C 8.9 °C 1017.3 hPa Calm     86% 0.0 mm 113 W/m2
13:34 11.2 °C 8.9 °C 1017.3 hPa Calm     86% 0.0 mm 142 W/m2
13:39 11.3 °C 9 °C 1017.3 hPa Calm     86% 0.0 mm 148 W/m2
13:44 11.3 °C 9 °C 1017.3 hPa Calm   1.6 km/h 86% 0.0 mm 162 W/m2
13:49 11.3 °C 9 °C 1017.3 hPa Calm     86% 0.0 mm 153 W/m2
13:54 11.4 °C 9.1 °C 1017.3 hPa Calm   1.6 km/h 86% 0.0 mm 214 W/m2
13:59 11.4 °C 9 °C 1017.3 hPa Calm   1.6 km/h 85% 0.0 mm 223 W/m2
14:04 11.6 °C 9.2 °C 1017.3 hPa Calm     85% 0.0 mm 174 W/m2
14:09 11.6 °C 9.2 °C 1016.9 hPa Calm   1.6 km/h 85% 0.0 mm 139 W/m2
14:14 11.6 °C 9.2 °C 1016.9 hPa Calm   1.6 km/h 85% 0.0 mm 174 W/m2
14:19 11.6 °C 9.2 °C 1016.9 hPa Calm     85% 0.0 mm 185 W/m2
14:24 11.6 °C 9.2 °C 1016.9 hPa Calm     85% 0.0 mm 197 W/m2
14:29 11.6 °C 9.2 °C 1016.9 hPa Calm   1.6 km/h 85% 0.0 mm 142 W/m2
14:34 11.6 °C 9.2 °C 1016.6 hPa Calm   1.6 km/h 85% 0.0 mm 128 W/m2
14:39 11.6 °C 9.2 °C 1016.6 hPa Calm   1.6 km/h 85% 0.0 mm 142 W/m2
14:44 11.5 °C 9.1 °C 1016.6 hPa Calm     85% 0.0 mm 109 W/m2
14:49 11.5 °C 9.1 °C 1016.6 hPa Calm     85% 0.0 mm 102 W/m2
14:54 11.4 °C 8.8 °C 1016.6 hPa Calm     84% 0.0 mm 51 W/m2
14:59 11.4 °C 9 °C 1016.3 hPa Calm     85% 0.0 mm 49 W/m2
15:04 11.3 °C 8.7 °C 1016.3 hPa Calm     84% 0.0 mm 79 W/m2
15:09 11.3 °C 8.7 °C 1016.3 hPa Calm     84% 0.0 mm 62 W/m2
15:14 11.2 °C 8.6 °C 1016.3 hPa Calm     84% 0.0 mm 58 W/m2
15:19 11.2 °C 8.8 °C 1016.3 hPa Calm     85% 0.0 mm 47 W/m2
15:24 11.2 °C 8.8 °C 1016.6 hPa Calm     85% 0.0 mm 49 W/m2
15:29 11.1 °C 8.7 °C 1016.6 hPa Calm     85% 0.0 mm 60 W/m2
15:34 11.1 °C 8.7 °C 1016.6 hPa Calm     85% 0.0 mm 54 W/m2
15:39 11.1 °C 8.8 °C 1016.6 hPa Calm     86% 0.0 mm 74 W/m2
15:44 11.1 °C 8.8 °C 1016.6 hPa Calm     86% 0.0 mm 91 W/m2
15:49 11.1 °C 9 °C 1016.6 hPa Calm     87% 0.0 mm 70 W/m2
15:54 11 °C 8.9 °C 1016.6 hPa Calm     87% 0.0 mm 58 W/m2
15:59 10.9 °C 8.8 °C 1016.6 hPa Calm     87% 0.0 mm 30 W/m2
16:04 10.9 °C 9 °C 1016.6 hPa Calm     88% 0.0 mm 58 W/m2
16:09 10.9 °C 9 °C 1016.3 hPa Calm     88% 0.0 mm 54 W/m2
16:14 10.9 °C 9 °C 1016.3 hPa Calm     88% 0.0 mm 37 W/m2
16:19 10.8 °C 8.9 °C 1016.3 hPa Calm     88% 0.0 mm 42 W/m2
16:24 10.8 °C 8.9 °C 1016.3 hPa Calm     88% 0.0 mm 33 W/m2
16:30 10.8 °C 9.1 °C 1016.3 hPa Calm     89% 0.0 mm 25 W/m2
16:35 10.8 °C 9.1 °C 1015.9 hPa Calm   1.6 km/h 89% 0.0 mm 21 W/m2
16:40 10.7 °C 9 °C 1015.9 hPa Calm     89% 0.0 mm 23 W/m2
16:45 10.7 °C 9 °C 1015.6 hPa Calm     89% 0.0 mm 23 W/m2
16:50 10.7 °C 9 °C 1015.6 hPa Calm     89% 0.0 mm 21 W/m2
16:55 10.6 °C 8.9 °C 1015.6 hPa Calm     89% 0.0 mm 12 W/m2
17:00 10.6 °C 8.9 °C 1015.6 hPa Calm     89% 0.0 mm 9 W/m2
17:05 10.6 °C 9 °C 1015.2 hPa Calm     90% 0.0 mm 9 W/m2
17:10 10.5 °C 8.9 °C 1015.2 hPa Calm     90% 0.0 mm 7 W/m2
17:15 10.4 °C 8.8 °C 1015.6 hPa Calm     90% 0.0 mm 0 W/m2
17:20 10.4 °C 8.8 °C 1015.2 hPa Calm     90% 0.0 mm 0 W/m2
17:25 10.4 °C 8.8 °C 1015.2 hPa Calm     90% 0.0 mm 0 W/m2
17:30 10.3 °C 8.7 °C 1015.2 hPa Calm     90% 0.0 mm 0 W/m2
17:35 10.3 °C 8.7 °C 1015.2 hPa Calm   1.6 km/h 90% 0.2 mm 0 W/m2
17:40 10.2 °C 8.6 °C 1014.9 hPa Calm     90% 0.2 mm 0 W/m2
17:45 10.2 °C 8.6 °C 1014.9 hPa Calm     90% 0.5 mm 0 W/m2
17:50 10.1 °C 8.7 °C 1014.9 hPa Calm     91% 0.5 mm 0 W/m2
17:55 10.1 °C 8.7 °C 1014.6 hPa Calm     91% 0.5 mm 0 W/m2
18:00 10 °C 8.6 °C 1014.6 hPa Calm     91% 0.5 mm 0 W/m2
18:05 9.9 °C 8.7 °C 1014.6 hPa Calm     92% 0.5 mm 0 W/m2
18:10 9.9 °C 8.7 °C 1014.6 hPa Calm     92% 0.5 mm 0 W/m2
18:15 9.9 °C 8.7 °C 1014.2 hPa Calm     92% 0.8 mm 0 W/m2
18:20 9.8 °C 8.7 °C 1013.9 hPa Calm     93% 0.8 mm 0 W/m2
18:25 9.8 °C 8.7 °C 1013.5 hPa Calm     93% 0.8 mm 0 W/m2
18:30 9.8 °C 8.7 °C 1013.2 hPa Calm     93% 0.8 mm 0 W/m2
18:35 9.8 °C 8.7 °C 1013.5 hPa Calm     93% 0.8 mm 0 W/m2
18:40 9.7 °C 8.6 °C 1013.5 hPa Calm     93% 0.8 mm 0 W/m2
18:45 9.7 °C 8.6 °C 1013.2 hPa Calm     93% 0.8 mm 0 W/m2
18:50 9.7 °C 8.8 °C 1012.9 hPa Calm     94% 1.3 mm 0 W/m2
18:56 9.7 °C 8.8 °C 1012.9 hPa Calm     94% 1.0 mm 0 W/m2
19:01 9.7 °C 8.8 °C 1012.9 hPa Calm     94% 1.3 mm 0 W/m2
19:06 9.6 °C 8.7 °C 1012.5 hPa Calm     94% 1.5 mm 0 W/m2
19:11 9.6 °C 8.7 °C 1012.5 hPa Calm     94% 1.5 mm 0 W/m2
19:16 9.6 °C 8.7 °C 1012.2 hPa Calm     94% 1.5 mm 0 W/m2
19:21 9.6 °C 8.7 °C 1012.2 hPa Calm     94% 1.5 mm 0 W/m2
19:26 9.5 °C 8.6 °C 1011.9 hPa Calm     94% 1.8 mm 0 W/m2
19:31 9.4 °C 8.5 °C 1011.9 hPa Calm     94% 1.8 mm 0 W/m2
19:36 9.4 °C 8.5 °C 1011.5 hPa Calm     94% 1.8 mm 0 W/m2
19:41 9.4 °C 8.5 °C 1011.5 hPa Calm     94% 1.8 mm 0 W/m2
19:46 9.4 °C 8.5 °C 1011.2 hPa Calm     94% 1.5 mm 0 W/m2
19:51 9.4 °C 8.6 °C 1010.8 hPa Calm     95% 1.5 mm 0 W/m2
19:56 9.4 °C 8.6 °C 1010.5 hPa Calm     95% 1.5 mm 0 W/m2
20:01 9.4 °C 8.6 °C 1010.5 hPa Calm     95% 1.5 mm 0 W/m2
20:06 9.4 °C 8.6 °C 1010.2 hPa Calm     95% 1.3 mm 0 W/m2
20:11 9.4 °C 8.6 °C 1009.8 hPa Calm     95% 1.0 mm 0 W/m2
20:16 9.5 °C 8.7 °C 1009.5 hPa Calm   1.6 km/h 95% 1.3 mm 0 W/m2
20:21 9.7 °C 9.1 °C 1009.1 hPa Calm   1.6 km/h 96% 1.0 mm 0 W/m2
20:26 9.9 °C 9.3 °C 1009.1 hPa Calm     96% 0.8 mm 0 W/m2
20:31 10.1 °C 9.5 °C 1008.8 hPa Calm     96% 0.8 mm 0 W/m2
20:36 10.3 °C 9.7 °C 1008.8 hPa Calm     96% 0.5 mm 0 W/m2
20:41 10.4 °C 9.8 °C 1008.5 hPa Calm     96% 0.5 mm 0 W/m2
20:46 10.6 °C 10 °C 1008.1 hPa Calm     96% 0.5 mm 0 W/m2
20:51 10.8 °C 10 °C 1008.1 hPa Calm     95% 0.5 mm 0 W/m2
20:56 10.9 °C 10.1 °C 1007.8 hPa Calm   12.9 km/h 95% 0.2 mm 0 W/m2
21:01 11.1 °C 10.3 °C 1007.5 hPa Calm     95% 0.2 mm 0 W/m2
21:06 11.3 °C 10.5 °C 1007.5 hPa Calm     95% 0.2 mm 0 W/m2
21:11 11.4 °C 10.6 °C 1007.5 hPa Calm     95% 0.2 mm 0 W/m2
21:16 11.6 °C 10.8 °C 1007.1 hPa Calm     95% 0.0 mm 0 W/m2
21:21 11.8 °C 10.9 °C 1006.8 hPa Calm   3.2 km/h 94% 0.0 mm 0 W/m2
21:26 12 °C 10.9 °C 1006.8 hPa Calm   1.6 km/h 93% 0.0 mm 0 W/m2
21:31 12.1 °C 11 °C 1006.4 hPa Calm   22.5 km/h 93% 0.0 mm 0 W/m2
21:36 12.2 °C 10.9 °C 1006.4 hPa Calm   35.4 km/h 92% 0.0 mm 0 W/m2
21:41 12.3 °C 11 °C 1006.1 hPa Calm     92% 0.0 mm 0 W/m2
21:46 12.3 °C 10.9 °C 1005.8 hPa Calm     91% 0.0 mm 0 W/m2
21:51 12.3 °C 10.9 °C 1005.4 hPa Calm     91% 0.0 mm 0 W/m2
21:56 12.4 °C 10.8 °C 1005.8 hPa Calm     90% 0.0 mm 0 W/m2
22:01 12.5 °C 10.9 °C 1005.1 hPa Calm   1.6 km/h 90% 0.0 mm 0 W/m2
22:06 12.6 °C 10.8 °C 1005.1 hPa Calm   1.6 km/h 89% 0.0 mm 0 W/m2
22:11 12.6 °C 10.7 °C 1005.1 hPa Calm     88% 0.0 mm 0 W/m2
22:16 12.7 °C 10.6 °C 1004.7 hPa Calm   1.6 km/h 87% 0.0 mm 0 W/m2
22:21 12.7 °C 10.6 °C 1004.7 hPa Calm     87% 0.0 mm 0 W/m2
22:26 12.8 °C 10.5 °C 1004.4 hPa Calm     86% 0.0 mm 0 W/m2
22:31 12.8 °C 10.5 °C 1004.7 hPa Calm   4.8 km/h 86% 0.2 mm 0 W/m2
22:36 12.8 °C 10.5 °C 1004.4 hPa Calm     86% 0.5 mm 0 W/m2
22:41 12.7 °C 10.4 °C 1004.4 hPa Calm     86% 0.5 mm 0 W/m2
22:46 12.6 °C 10.5 °C 1004.1 hPa Calm   22.5 km/h 87% 0.5 mm 0 W/m2
22:52 12.6 °C 10.5 °C 1004.1 hPa Calm     87% 0.8 mm 0 W/m2
22:57 12.4 °C 10.5 °C 1004.1 hPa WSW 1.4 km/h 30.6 km/h 88% 0.8 mm 0 W/m2
23:02 12.3 °C 10.4 °C 1003.7 hPa Calm   1.6 km/h 88% 1.0 mm 0 W/m2
23:07 12.2 °C 10.4 °C 1003.7 hPa Calm   30.6 km/h 89% 1.3 mm 0 W/m2
23:12 12.2 °C 10.4 °C 1003.4 hPa Calm     89% 1.3 mm 0 W/m2
23:17 12.1 °C 10.5 °C 1003.4 hPa WNW 6.4 km/h 6.4 km/h 90% 1.5 mm 0 W/m2
23:22 12 °C 10.4 °C 1003.4 hPa Calm     90% 1.5 mm 0 W/m2
23:27 11.9 °C 10.5 °C 1003.0 hPa Calm     91% 1.5 mm 0 W/m2
23:32 11.8 °C 10.4 °C 1003.0 hPa Calm     91% 1.8 mm 0 W/m2
23:37 11.7 °C 10.4 °C 1002.7 hPa Calm   16.1 km/h 92% 1.8 mm 0 W/m2
23:42 11.7 °C 10.4 °C 1002.4 hPa Calm     92% 2.0 mm 0 W/m2
23:47 11.7 °C 10.4 °C 1002.7 hPa Calm   16.1 km/h 92% 2.0 mm 0 W/m2
23:52 11.7 °C 10.4 °C 1002.4 hPa Calm     92% 2.0 mm 0 W/m2
23:57 11.7 °C 10.4 °C 1002.7 hPa Calm   1.6 km/h 92% 2.0 mm 0 W/m2
Juneau County Weather
Compliments of Weather Underground - 4 mb